AEROCUBE 7C (OCSD C) (43043 NORAD) Tracking and Keplerian Element Data

This shows tracking and keplerian element data for the satellite.

Feedback or suggestion? Click here.




ElementValue
Catalog43043
NameAEROCUBE 7C (OCSD C)
Epoch Orbit7236
Epoch Day80.91332459
Epoch Year2019
RAAN126.7842
Inclination51.6379
Eccentricity0.0004584
Argument of Perigee190.7314
Mean Anonmoly169.3573
Mean Motion15.40587031
Decay Rate2.282E-05
L11 43043U 17071G 19080.91332459 .00002282 00000-0 65021-4 0 9996
L22 43043 51.6379 126.7842 0004584 190.7314 169.3573 15.40587031 72369

Live tracking and technical data element details for AEROCUBE 7C (OCSD C) (NORAD 43043). AEROCUBE 7C (OCSD C) can be tracked NOW for your location showing map with azimuth and elevation plus other details from your city location.

Track the satellite on the map from your city or location and see movement details for azimuth, elevation, latitude, longitude, range, height, and movement on the map or in text.







IsCatalogInMostPopularTable: catalog: 43043, numindb: 205
Update: records affected: 1



GetName: 43043 AEROCUBE 7C (OCSD C)

Hit Count: updated at: Sat, 23 Mar 2019 02:22:36 GMT